Other Public Products
Issued by NWS Grand Forks, ND

Current Version | Previous Version | Text Only | Print | Product List | Glossary On
Versions: 1 2 3 4 5 6 7 8 9 10 11 12 13 14 15 16 17 18 19 20 21 22 23 24 25 26 27 28 29 30 31 32 33 34 35 36 37 38 39 40 41 42 43 44 45 46 47 48 49 50
000
FPUS83 KFGF 252031
OPUFGF
PRAIRIE TO PINES WEATHER ROUNDUP
NATIONAL WEATHER SERVICE EASTERN NORTH DAKOTA/GRAND FORKS ND
300 PM CDT SUN SEP 25 2022

 **SATELLITE DATA USED TO AUGMENT SKY COVER AT AUTOMATED STATIONS**
 *****  WEATHER ACROSS EASTERN NORTH DAKOTA  *****

CITY           SKY/WX    TMP DP  RH WIND       PRES   REMARKS
GRAND FORKS    FAIR      67  38  34 NW18G36   30.01F
GRND FORKS AFB MOSUNNY   67  36  32 N23       30.01F
GRND FORKS NWS   N/A     66  39  36 N13       29.97S
BUXTON         NOT AVBL
DEVILS LAKE    FAIR      64  34  32 N22G33    30.10R
FARGO          PTSUNNY   68  37  32 NW25G35   30.02S
WAHPETON ARPT  MOCLDY    70  32  24 NW31G39   30.01R
$$

 *****  WEATHER ACROSS CENTRAL AND WESTERN NORTH DAKOTA  *****

CITY           SKY/WX    TMP DP  RH WIND       PRES   REMARKS
JAMESTOWN      FAIR      66  32  28 NW28G43   30.10F
BISMARCK       FAIR      68  33  27 NW22G36   30.20F
MINOT          FAIR      67  34  29 NW21G30   30.17F
MINOT AFB      FAIR      65  33  30 N21G28    30.14F
GARRISON         N/A     68  34  28 NW21G35   30.19F
WILLISTON      NOT AVBL
DICKINSON      FAIR      68  33  27 NW17G29   30.24F
HETTINGER      FAIR      70  31  23 NW18G30   30.25F
$$

 *****  OTHER OBSERVATIONS NORTHEAST NORTH DAKOTA  *****

CITY           SKY/WX    TMP DP  RH WIND       PRES   REMARKS
WALHALLA       FAIR      64  36  34 NW16G30   30.04S
LANGDON        FAIR      63  30  29 NW20G35   30.06F
CAVALIER       FAIR      64  34  32 NW25G35   30.02S
GRAFTON        FAIR      64  34  32 NW20G35   30.03R
CANDO          FAIR      64  32  29 N28G33    30.12S
FORT TOTTEN      N/A     65  38  37 NW8       29.95
ROLLA          FAIR      63  30  29 NW25G38   30.11F
RUGBY          FAIR      64  32  29 NW28G35   30.12F
 ***** THE ABOVE OBSERVATIONS ARE NON NWS ARE NOT QUALITY
        CONTROLLED AND MAY MIS-REPORT RAIN FOR SNOW...
$$

 *****  OTHER OBSERVATIONS SOUTHEAST NORTH DAKOTA *****

CITY           SKY/WX    TMP DP  RH WIND       PRES   REMARKS
COOPERSTOWN    FAIR      64  34  32 NW22G37   30.07F
VALLEY CITY    FAIR      66  34  30 NW28G39   30.08S
OAKES          FAIR      68  32  26 N32G39    30.09S
GWINNER        PTCLDY    68  32  26 NW25G37   30.07S
SHEYENNE NWR     N/A     68  31  25 NW17      29.95S
BUFFALO        NOT AVBL
WYNDMERE       NOT AVBL
 ***** THE ABOVE OBSERVATIONS ARE NON NWS ARE NOT QUALITY
       CONTROLLED AND MAY MIS-REPORT RAIN FOR SNOW...
$$

  *****  WEATHER ACROSS NORTHERN MINNESOTA  *****

CITY           SKY/WX    TMP DP  RH WIND       PRES   REMARKS
FLAG ISLAND    NOT AVBL
WARROAD        FAIR      61  43  51 NW16G28   29.92S
ROSEAU           N/A     63  39  42 NW18G26   29.94R
HALLOCK        FAIR      64  32  29 NW28G36   29.99S
THF RVR FALLS  FAIR      62  34  35 NW31G39   29.98S
HALSTAD        NOT AVBL
FOSSTON        NOT AVBL
BAUDETTE       FAIR      63  44  50 NW26G38   29.88F
WASKISH        NOT AVBL
CROOKSTON      FAIR      66  32  28 NW28G35   30.00S
$$
  *****  WEATHER ACROSS CENTRAL AND WEST MINNESOTA  *****

CITY           SKY/WX    TMP DP  RH WIND       PRES   REMARKS
BEMIDJI        PTSUNNY   60  40  47 NW24G30   29.93S
PARK RAPIDS    PTSUNNY   64  40  41 NW21G35   29.94S
WADENA         FAIR      64  37  36 NW16G31   29.96F
DETROIT LAKES  PTSUNNY   63  39  42 NW20G33   29.99S
MOORHEAD       FAIR      66  37  34 NW20G31   30.03R
FERGUS FALLS   FAIR      64  37  36 NW21G33   30.00R
ELBOW LAKE     FAIR      64  39  38 NW21G28   30.01S
MORRIS MN        N/A     66  28  24 NW20G30   30.02S
STAPLES        FAIR      66  37  34 NW28G35   29.95S
WHEATON          N/A     70  36  28 NW21G31   30.04S
$$
  *****  WEATHER ELSEWHERE ACROSS MINNESOTA  *****

CITY           SKY/WX    TMP DP  RH WIND       PRES   REMARKS
DULUTH         FAIR      63  43  48 NW23G39   29.77S
INTRNTL FALLS  FAIR      59  46  62 NW21G33   29.81F
ELY            TSTM      57  46  67 NW10G22   29.76R
CLOQUET        FAIR      61  43  51 W21G29    29.80F
BRAINERD       PTSUNNY   64  41  42 NW18G38   29.92S
HIBBING        FAIR      58  46  64 NW17G32   29.82R
ALEXANDRIA     FAIR      65  39  38 NW16G36   30.00S
SAINT CLOUD    PTSUNNY   66  40  38 NW26G37   29.92S
MINNEAPOLIS    PTSUNNY   70  40  33 NW25G43   29.88F
$$

  *****  WEATHER ACROSS SOUTH DAKOTA  *****

CITY           SKY/WX    TMP DP  RH WIND       PRES   REMARKS
SIOUX FALLS    FAIR      74  34  23 N26G32    30.07F
BROOKINGS      FAIR     N/A N/A N/A N24G33    30.07F
WATERTOWN      FAIR      66  36  32 NW24G36   30.08F
HURON          FAIR      72  33  24 NW16G36   30.12F
SISSETON         N/A     71  32  23 NW25G38   30.04S
ABERDEEN       FAIR      72  35  25 NW29G37   30.12F
MITCHELL       FAIR      74  29  19 N23G39    30.12F
PIERRE         FAIR      74  31  20 N28G39    30.17F
MOBRIDGE       FAIR      71  32  23 NW23G31   30.16F
RAPID CITY     FAIR      73  38  27 N21G31    30.27F
$$

  *****  SOME WEATHER IN NEARBY STATES *****

CITY           SKY/WX    TMP DP  RH WIND       PRES   REMARKS
GLASGOW MT     FAIR      72  33  24 VRB6      30.24F
GREAT FALLS MT FAIR      75  37  25 W13       30.25F
CHEYENNE WY    FAIR      68  35  29 CALM      30.39F
SCOTTSBLUFF NE FAIR      76  36  23 W7        30.30F
OMAHA NE       FAIR      78  39  24 NW23G36   30.06F
DES MOINES IA  FAIR      75  39  27 NW25G37   29.97F
DAVENPORT IA   FAIR      75  46  35 W18G35    29.86F
CHICAGO IL     PTSUNNY   65  54  67 W17G24    29.76F
EAU CLAIRE WI  FAIR      70  49  47 NW21G33   29.78F
LA CROSSE WI   FAIR      70  46  42 NW16G24   29.80F
$$

  *****  SOME NATIONAL WEATHER *****

CITY           SKY/WX    TMP DP  RH WIND       PRES   REMARKS
LA GUARDIA NY  PTSUNNY   77  53  43 SW10G16   29.65F
RALEIGH NC     PTSUNNY   79  58  48 SW17      29.81F
ATLANTA GA     PTSUNNY   80  62  54 SW10      29.92F
NEW ORLEANS LA PTSUNNY   89  69  51 N6        29.90F HX  93
OKLAHOMA CITY  FAIR      87  45  23 N22G30    30.08F
ALBUQUERQUE NM FAIR      83  37  19 SE22G33   30.28F
SALT LAKE CITY FAIR      78  38  23 NW9       30.29F
LOS ANGELES CA FAIR      76  64  66 SW10      29.98F
BOISE ID       FAIR      81  28  14 VRB3      30.25F
SEATTLE WA     FAIR      73  53  49 N8        30.15F
$$

*** WEATHER ACROSS MANITOBA...SASKATCHEWAN AND ONTARIO ***
                ***ONTARIO***

CITY           SKY/WX    TMP DP  RH WIND       PRES   REMARKS
GERALDTON      NOT AVBL
THUNDER BAY    LGT RAIN  55  48  76 N12       29.65R
SIOUX LOOKOUT  PTSUNNY   57  46  67 NW21G29   29.74R
TORONTO        LGT RAIN  63  59  88 SE6       29.50S
BIG TROUT LK   LGT RAIN  52  50  93 NW10G21   29.66R
PICKLE LAKE    PTSUNNY   57  46  67 NW10G22   29.64S
DRYDEN         PTSUNNY   55  46  71 NW10G23   29.77R
KENORA         LGT RAIN  52  45  76 NW13G18   29.86R
$$
                *** MANITOBA***

CITY           SKY/WX    TMP DP  RH WIND       PRES   REMARKS
BRANDON        MOSUNNY   66  36  32 NW20G32   30.09F
DAUPHIN        MOSUNNY   64  34  32 NW21G28   30.06F
ISLAND LAKE    CLOUDY    50  41  71 NW17G32   29.87R
PILOT MOUND      N/A     63  34  34 NW20G29     N/A
THE PAS        SUNNY     57  36  44 NW13G20   30.07S
THOMPSON       LGT RAIN  48  30  49 N18G26    30.00R
WINNIPEG       MOSUNNY   61  37  41 NW30G37   30.00S
LYNN LAKE      PTSUNNY   46  32  57 NW12G17   30.07S
CHURCHILL      LGT RAIN  39  32  75 N22G36    29.94R
GILLAM         PTSUNNY   46  39  76 N20G28    29.92R
$$
                ***SASKATCHEWAN***

CITY           SKY/WX    TMP DP  RH WIND       PRES   REMARKS
ESTEVAN        SUNNY    N/A N/A N/A NW16G24   30.20F
KINDERSLEY     MOSUNNY   68  30  24 SW6       30.18F
LLOYDMINSTER   PTSUNNY   70  36  28 W13G21    30.14F
PRINCE ALBERT  PTSUNNY   68  34  28 W15G23    30.15F
REGINA         MOSUNNY   66  28  24 NW10G24   30.20F
YORKTON        MOSUNNY   63  36  36 NW18G25   30.14S


USA.gov is the U.S. government's official web portal to all federal, state and local government web resources and services.